Location: Easter Hill Village
(37.9235°N, 122.3444°W)
Time: 10:49:26
(UTC+00:00)

Cosmos 1125 Rocket - Pass Details

Date: 16 September 2019
Orbit: 757 x 781 km, 74.0° (Epoch: 17 October)

Event Time Altitude Azimuth Distance (km) Brightness Sun altitude
Rises 11:57:46 0° 340° (NNW) 3,272 6.8 -22.7°
Reaches altitude 10° 12:00:10 10° 340° (NNW) 2,340 6.0 -22.2°
Maximum altitude 12:05:29 81° 254° (WSW) 794 3.4 -21.2°
Drops below altitude 10° 12:10:45 10° 167° (SSE) 2,317 5.9 -20.3°
Sets 12:13:07 0° 167° (SSE) 3,237 6.7 -19.8°
